02:12
Airports
History
Links
Donate
Help keep this website running!
PayPal
Bitcoin
This page is community maintained. The information is intended for PC simulator navigation or reference.
Always use approved charts for navigation.
CYWK
WABUSH
WABUSH (CYWK)
Wabush, Newfoundland and Labrador, Canada
(U)
Lat/Lng:52° 54' 26.74" N / 66° 51' 17.59" W
52.907429 / -66.854885
Elevation:1808'ft / 551mMSL
ID / ICAO:CYWK
Runways:1
Longest:18-36
Asphalt 1,819m / 5,967ft
METAR02:00 GMT 2017-12-11
Altimeter: 29.37
Visibility: 5.0 statute miles
Wind: 0 knots (from 000°)
Temp: -24°c / -11°f
Humidity: 76.0%

METAR: CYWK 110200Z 00000KT 5SM -SN OVC044 M24/M27 A2937 RMK SC8 LAST STFD OBS/NEXT 111000 UTC SLP009

(Powered by phpweather)
Airport Radio Frequencies
Tower: 122
Approach: 132.25
Nearby VORs <50NM
Nearby NDBs
Runway 18 / 36
Dimensions:1818.6 x 45.7m 5967' x 150'ft
Surface:Asphalt
Edge Lights:High intensity
Runway 18 [A]Runway 36 [B]
Heading:157°TH 337°TH
Lat:
Lng:
52° 54' 54"N
66° 51' 36.6"W
52° 53' 59.49"N
66° 50' 58.57"W
ALS:ODALSSSALR
TDZ:Yes, lighted
User Notes and Comments
52° 54' 26.74" N / 66° 51' 17.59" W
Distance To
Airport ID:
Nearby Airports
(U) CHURCHILL FALLS 122.3 NM
CZUM ENE 68°
(U) SCHEFFERVILLE 131.1 NM
CYKL ( WX ) N
(C) SEPT ILES 187.1 NM
CYZV ( WX ) S 172°
(U) HAVRE ST PIERRE 228.6 NM
CYGV ( WX ) SE 142°
(U) PORT MENIER 239.3 NM
CYPN SSE 152°
(C) Squirrel Cove 262.1 NM
CYSZ S 176°
(U) BAIE COMEAU 267.4 NM
CYBC ( WX ) SSW 192°
VFR Chart
Flight Planning at SkyVector.com